Weather History for KTRI - February, 2014

Change the Weather History Date:

Saturday, February 15, 2014

  Actual Average Record
Temperature  
Mean Temperature 32 °F 39 °F  
Max Temperature 40 °F 50 °F 76 °F (1954)
Min Temperature 23 °F 28 °F 1 °F (1960)
Degree Days  
Heating Degree Days 33 26  
Month to date heating degree days 446 412  
Since 1 July heating degree days 3200 3066  
Cooling Degree Days 0 0  
Month to date cooling degree days 0 0  
Year to date cooling degree days 0 0  
Moisture  
Dew Point 22 °F    
Average Humidity 65    
Maximum Humidity 85    
Minimum Humidity 45    
Precipitation  
Precipitation 0.10 in 0.13 in 1.26 in (1964)
Month to date precipitation 2.22 1.87  
Year to date precipitation 4.02 5.24  
Snow  
Snow T in 0.10 in - ()
Month to date snowfall 6.3 1.9  
Since 1 July snowfall 12.3 9.3  
Snow Depth 1.00 in    
Sea Level Pressure  
Sea Level Pressure 29.87 in    
Wind  
Wind Speed 10 mph (West)    
Max Wind Speed 22 mph    
Max Gust Speed 27 mph    
Visibility 9 miles    
Events Rain , Snow    
T = Trace of Precipitation, MM = Missing Value Source: NWS Daily Summary

Daily Weather History Graph

Daily Weather History Graph

Search for Another Location

Airport or City:

Trip Planner

Search our weather history database for the weather conditions in past years. The results will help you decide how hot, cold, wet, or windy it might be!

Date:

Astronomy

Feb. 15, 2014 Rise Set
Actual Time 7:17 AM EST 6:10 PM EST
Civil Twilight 6:51 AM EST 6:36 PM EST
Nautical Twilight 6:20 AM EST 7:07 PM EST
Astronomical Twilight 5:50 AM EST 7:37 PM EST
Moon 7:06 PM EST (2/15) 7:17 AM EST (2/15)
Length of Visible Light 11h 45m
Length of Day
10h 52m
Full, 100% of the Moon is Illuminated
Feb 15
Full
Feb 22
Last Quarter
Mar 1
New
Mar 8
First Quarter
Mar 16
Full

Hourly Weather History & Observations

Time (EST) Temp. Windchill Dew Point Humidity Pressure Visibility Wind Dir Wind Speed Gust Speed Precip Events Conditions
12:49 AM 37.4 °F - 32.0 °F 81% 29.61 in 10.0 mi Calm Calm - 0.00 in Rain Light Rain
12:53 AM 37.0 °F 33.3 °F 30.9 °F 79% 29.60 in 9.0 mi West 4.6 mph - 0.00 in Rain Light Rain
1:48 AM 37.4 °F 30.8 °F 33.8 °F 87% 29.61 in 6.0 mi SW 9.2 mph - 0.07 in Rain Light Rain
1:53 AM 37.0 °F 31.6 °F 33.1 °F 86% 29.59 in 9.0 mi SSW 6.9 mph - 0.07 in Rain Light Rain
2:18 AM 37.0 °F 34.5 °F 34.0 °F 89% 29.60 in 9.0 mi SSW 3.5 mph - 0.01 in Rain Light Rain
2:53 AM 37.0 °F 31.6 °F 34.0 °F 89% 29.58 in 9.0 mi SW 6.9 mph - 0.02 in Rain Light Rain
3:53 AM 37.9 °F 29.6 °F 33.1 °F 83% 29.59 in 10.0 mi West 13.8 mph - 0.00 in Rain Light Rain
4:53 AM 36.0 °F 26.3 °F 30.0 °F 79% 29.63 in 10.0 mi West 16.1 mph 24.2 mph 0.01 in   Overcast
5:12 AM 36.0 °F 26.0 °F 28.0 °F 73% 29.67 in 10.0 mi West 17.3 mph 25.3 mph N/A   Overcast
5:53 AM 35.1 °F 26.4 °F 26.1 °F 70% 29.70 in 10.0 mi WNW 12.7 mph 25.3 mph N/A   Overcast
6:02 AM 35.1 °F 25.9 °F 26.1 °F 70% 29.72 in 10.0 mi West 13.8 mph - N/A   Overcast
6:53 AM 34.0 °F 23.8 °F 25.0 °F 70% 29.77 in 10.0 mi WNW 16.1 mph - N/A   Overcast
7:53 AM 32.0 °F 21.6 °F 24.1 °F 73% 29.83 in 10.0 mi WNW 15.0 mph - N/A   Overcast
8:53 AM 30.0 °F 18.7 °F 21.9 °F 72% 29.89 in 8.0 mi WNW 16.1 mph 21.9 mph 0.00 in Snow Light Snow
9:34 AM 28.0 °F 17.5 °F 19.9 °F 72% 29.93 in 2.0 mi West 12.7 mph - 0.00 in Snow Light Snow
9:53 AM 28.9 °F 18.6 °F 19.0 °F 67% 29.94 in 7.0 mi WNW 12.7 mph - 0.00 in   Overcast
10:00 AM 28.9 °F 17.7 °F 18.0 °F 64% 29.94 in 9.0 mi WNW 15.0 mph - N/A   Overcast
10:53 AM 28.0 °F 16.5 °F 19.0 °F 69% 29.98 in 4.0 mi West 15.0 mph - 0.00 in Snow Light Snow
11:53 AM 28.0 °F 16.5 °F 18.0 °F 66% 30.00 in 7.0 mi WSW 15.0 mph 19.6 mph 0.00 in   Mostly Cloudy
12:53 PM 28.0 °F 16.5 °F 17.1 °F 63% 30.01 in 5.0 mi West 15.0 mph - 0.00 in   Haze
1:53 PM 28.0 °F 16.1 °F 14.0 °F 56% 30.03 in 10.0 mi West 16.1 mph 20.7 mph 0.00 in   Mostly Cloudy
2:53 PM 30.9 °F 22.8 °F 15.1 °F 52% 30.03 in 10.0 mi WSW 9.2 mph - N/A   Scattered Clouds
3:53 PM 32.0 °F 22.1 °F 14.0 °F 48% 30.04 in 10.0 mi West 13.8 mph - N/A   Scattered Clouds
4:53 PM 30.9 °F 22.2 °F 14.0 °F 50% 30.06 in 10.0 mi WSW 10.4 mph - N/A   Scattered Clouds
5:53 PM 30.0 °F 22.4 °F 14.0 °F 51% 30.07 in 10.0 mi West 8.1 mph - N/A   Scattered Clouds
6:53 PM 28.0 °F 19.3 °F 15.1 °F 58% 30.10 in 10.0 mi WSW 9.2 mph - N/A   Scattered Clouds
7:53 PM 28.0 °F 21.7 °F 15.1 °F 58% 30.11 in 10.0 mi SW 5.8 mph - N/A   Mostly Cloudy
8:53 PM 26.1 °F 21.9 °F 15.1 °F 63% 30.09 in 10.0 mi SSE 3.5 mph - N/A   Scattered Clouds
9:53 PM 24.1 °F - 15.1 °F 69% 30.09 in 10.0 mi Calm Calm - N/A   Mostly Cloudy
10:53 PM 25.0 °F - 16.0 °F 69% 30.09 in 10.0 mi Calm Calm - N/A   Mostly Cloudy
11:53 PM 24.1 °F - 18.0 °F 77% 30.08 in 9.0 mi Calm Calm - N/A   Overcast